Flag for Portugal Weather past 2 weeks in Leiria, Portugal

Now
63 °F

Fog.


Feels Like: 63 °F
Forecast: 62 / 73 °F
Wind: 3 mph from Southwest

Location: Monte Real Mil.

Current Time: Jul 31, 2014 at 7:29:06 AM

Latest Report: Jul 31, 2014 at 7:00 AM


Visibility: 1 mi

Pressure: 29.95 "Hg

Humidity: 100%

Dew point: 63 °F

Location of LeiriaLocation

Historic Weather in Leiria — Graph

°F

Leiria temperature yesterday

Maximum temperature yesterday: 90 °F (at 1:00 PM)
Minimum temperature yesterday: 61 °F (at 6:00 AM)
Average temperature yesterday: 73 °F

Past Weeks' High & Low Weather Summary

 TemperatureHumidityPressure
High90 °F (Jul 30, 1:00 PM)100% (Jul 16, 9:00 AM)30.18 "Hg (Jul 16, 9:00 AM)
Low59 °F (Jul 21, 6:00 AM)27% (Jul 30, 1:00 PM)29.86 "Hg (Jul 19, 6:00 AM)
Average68 °F81%29.98 "Hg
* Reported Jul 16 7:00 AM — Jul 31 6:00 AM, Leiria, Weather by CustomWeather, © 2014

Note: Actual official high and low records may vary slightly from our data, if they occured in-between our weather recording intervals... More about our weather records

Advertising

Leiria weather history for previous 24 hours

 ConditionsComfort  
Time TempWeatherWind HumidityBarometerVisibility
6:00 AM
Jul 31
63 °FFog.6 mph100%29.95 "Hg1 mi
5:00 AM63 °FFog.2 mph100%29.92 "Hg1 mi
4:00 AM63 °FFog.3 mph100%29.92 "Hg1 mi
3:00 AM64 °FClear.1 mph88%29.92 "Hg10 mi
2:00 AM64 °FClear.1 mph88%29.92 "Hg10 mi
1:00 AM66 °FClear.No wind83%29.95 "Hg10 mi
12:00 AM66 °FClear.1 mph83%29.95 "Hg10 mi
11:00 PM
Jul 30
70 °FClear.1 mph73%29.92 "Hg10 mi
10:00 PM70 °FClear.1 mph69%29.92 "Hg10 mi
9:00 PM70 °FSunny.2 mph73%29.92 "Hg10 mi
8:00 PM73 °FPassing clouds.6 mph61%29.92 "HgN/A
7:00 PM75 °FPassing clouds.7 mph57%29.92 "HgN/A
6:00 PM77 °FSunny.9 mph54%29.92 "Hg10 mi
5:00 PM79 °FSunny.9 mph45%29.92 "Hg10 mi
4:00 PM81 °FSunny.13 mph45%29.92 "Hg10 mi
3:00 PM84 °FSunny.13 mph35%29.89 "Hg10 mi
2:00 PM86 °FPassing clouds.12 mph33%29.89 "HgN/A
1:00 PM90 °FSunny.7 mph27%29.89 "Hg10 mi
12:00 PM88 °FSunny.8 mph29%29.89 "Hg10 mi
11:00 AM84 °FSunny.13 mph33%29.89 "Hg10 mi
10:00 AM79 °FPassing clouds.8 mph45%29.89 "HgN/A
9:00 AM70 °FSunny.2 mph69%29.86 "Hg10 mi
8:00 AM63 °FSunny.3 mph83%29.86 "Hg10 mi
7:00 AM61 °FClear.3 mph88%29.86 "Hg10 mi
Weather by CustomWeather, © 2014

See weather overviewHow to use our weather pages